Change the Weather History Date:

Sunday, March 24, 2013

  Actual Average Record
Temperature  
Mean Temperature 38 °F -  
Max Temperature 44 °F 58 °F 80 °F (1987)
Min Temperature 33 °F 34 °F 4 °F (1974)
Degree Days  
Heating Degree Days 26    
Moisture  
Dew Point 36 °F    
Average Humidity 93    
Maximum Humidity 100    
Minimum Humidity 81    
Precipitation  
Precipitation 0.04 in - - ()
Sea Level Pressure  
Sea Level Pressure 29.67 in    
Wind  
Wind Speed 8 mph (NNW)    
Max Wind Speed 14 mph    
Max Gust Speed 24 mph    
Visibility 4 miles    
Events Rain , Snow , Hail , Thunderstorm    
Averages and records for this station are not official NWS values.
T = Trace of Precipitation, MM = Missing Value Source: NWS Daily Summary

Daily Weather History Graph

Daily Weather History Graph

Search for Another Location

Airport or City:

Trip Planner

Search our weather history database for the weather conditions in past years. The results will help you decide how hot, cold, wet, or windy it might be!

Date:

Astronomy

Mar. 24, 2013 Rise Set
Actual Time 6:53 AM CDT 7:11 PM CDT
Civil Twilight 6:26 AM CDT 7:38 PM CDT
Nautical Twilight 5:56 AM CDT 8:08 PM CDT
Astronomical Twilight 5:24 AM CDT 8:40 PM CDT
Moon 4:42 PM CDT (3/24) 5:00 AM CDT (3/24)
Length of Visible Light 13h 11m
Length of Day
12h 18m
Waxing Gibbous, 92% of the Moon is Illuminated
Mar 24
Waxing Gibbous
Mar 27
Full
Apr 2
Last Quarter
Apr 10
New
Apr 18
First Quarter

Hourly Weather History & Observations

Time (CDT) Temp. Windchill Dew Point Humidity Pressure Visibility Wind Dir Wind Speed Gust Speed Precip Events Conditions
12:15 AM 44.6 °F 43.1 °F 41.0 °F 87% 29.80 in 10.0 mi NE 3.5 mph - 0.01 in Rain Light Rain
12:35 AM 44.6 °F 43.1 °F 41.0 °F 87% 29.80 in 7.0 mi NE 3.5 mph - 0.01 in Rain Light Rain
12:55 AM 44.6 °F - 41.0 °F 87% 29.80 in 7.0 mi Calm Calm - 0.01 in   Drizzle
1:15 AM 42.8 °F 40.1 °F 41.0 °F 93% 29.79 in 7.0 mi NNE 4.6 mph - 0.01 in Rain Light Rain
1:35 AM 42.8 °F 39.3 °F 41.0 °F 93% 29.78 in 7.0 mi NNE 5.8 mph - 0.02 in Rain Rain
1:55 AM 42.8 °F 39.3 °F 41.0 °F 93% 29.78 in 5.0 mi NNE 5.8 mph - 0.02 in   Drizzle
2:15 AM 42.8 °F 38.6 °F 41.0 °F 93% 29.77 in 7.0 mi North 6.9 mph - N/A Rain Light Rain
2:35 AM 42.8 °F 38.0 °F 39.2 °F 87% 29.76 in 10.0 mi NNE 8.1 mph - 0.01 in   Light Drizzle
2:55 AM 42.8 °F 36.6 °F 37.4 °F 81% 29.76 in 7.0 mi NNE 11.5 mph 16.1 mph 0.01 in   Overcast
3:15 AM 41.0 °F 33.5 °F 37.4 °F 87% 29.74 in 10.0 mi NE 13.8 mph 21.9 mph N/A   Overcast
3:35 AM 41.0 °F 33.5 °F 35.6 °F 81% 29.72 in 7.0 mi NE 13.8 mph 20.7 mph N/A   Overcast
3:55 AM 41.0 °F 33.9 °F 37.4 °F 87% 29.71 in 7.0 mi NE 12.7 mph 17.3 mph N/A   Overcast
4:15 AM 41.0 °F 34.3 °F 37.4 °F 87% 29.72 in 7.0 mi NNE 11.5 mph - N/A   Overcast
4:35 AM 41.0 °F 35.8 °F 37.4 °F 87% 29.72 in 7.0 mi NNE 8.1 mph 17.3 mph N/A   Overcast
4:55 AM 39.2 °F 31.2 °F 37.4 °F 93% 29.72 in 5.0 mi NNE 13.8 mph 17.3 mph N/A   Overcast
5:15 AM 39.2 °F 31.6 °F 37.4 °F 93% 29.72 in 5.0 mi NNE 12.7 mph 18.4 mph N/A   Overcast
5:35 AM 39.2 °F 32.5 °F 37.4 °F 93% 29.70 in 4.0 mi NNE 10.4 mph 18.4 mph N/A   Overcast
5:55 AM 37.4 °F 30.3 °F 37.4 °F 100% 29.70 in 4.0 mi NNE 10.4 mph - N/A   Overcast
6:15 AM 37.4 °F 30.3 °F 37.4 °F 100% 29.69 in 3.0 mi NE 10.4 mph 17.3 mph N/A Rain Light Rain
6:35 AM 37.4 °F 30.8 °F 37.4 °F 100% 29.69 in 4.0 mi ENE 9.2 mph - N/A   Overcast
6:52 AM 39.2 °F 33.0 °F 37.4 °F 93% 29.68 in 3.0 mi ENE 9.2 mph - N/A Rain Light Rain
7:52 AM 39.2 °F 32.0 °F 37.4 °F 93% 29.64 in 3.0 mi NE 11.5 mph - N/A   Overcast
8:53 AM 39.2 °F 32.0 °F 37.4 °F 93% 29.56 in 4.0 mi East 11.5 mph - N/A Rain Light Rain
9:54 AM 39.2 °F 32.0 °F 37.4 °F 93% 29.51 in 5.0 mi ESE 11.5 mph - N/A   Overcast
10:55 AM 39.2 °F 32.0 °F 37.4 °F 93% 29.55 in 2.5 mi SSW 11.5 mph - N/A Rain , Thunderstorm Light Thunderstorms and Rain
11:01 AM 39.2 °F 33.0 °F 37.4 °F 93% 29.55 in 2.0 mi WSW 9.2 mph - N/A Rain , Hail , Thunderstorm Light Thunderstorms and Rain
11:31 AM 37.4 °F 31.4 °F 37.4 °F 100% 29.52 in 1.5 mi North 8.1 mph - N/A Rain Light Rain
11:55 AM 37.4 °F 32.8 °F 37.4 °F 100% 29.54 in 1.0 mi WNW 5.8 mph - N/A Rain Light Rain
12:07 PM 37.4 °F 31.4 °F 35.6 °F 93% 29.53 in 1.0 mi NW 8.1 mph - N/A Rain Light Rain
12:48 PM 35.6 °F 28.6 °F 35.6 °F 100% 29.51 in 1.0 mi North 9.2 mph - N/A Rain Light Rain
1:55 PM 35.6 °F 29.2 °F 35.6 °F 100% 29.51 in 2.0 mi WNW 8.1 mph - N/A Rain Light Rain
2:58 PM 35.6 °F 28.6 °F 35.6 °F 100% 29.51 in 10.0 mi WNW 9.2 mph - N/A   Overcast
5:58 PM 35.6 °F 26.6 °F 33.8 °F 93% 29.57 in 10.0 mi WNW 13.8 mph - N/A   Overcast
6:55 PM 33.8 °F 25.3 °F 32.0 °F 93% 29.60 in 1.8 mi WNW 11.5 mph 23.0 mph N/A Snow Light Snow
7:15 PM 33.8 °F 24.3 °F 32.0 °F 93% 29.61 in 1.0 mi WNW 13.8 mph 19.6 mph N/A Snow Light Snow
7:35 PM 33.8 °F 24.3 °F 32.0 °F 93% 29.63 in 2.0 mi WNW 13.8 mph 24.2 mph N/A Snow Light Snow
8:15 PM 33.8 °F 24.8 °F 32.0 °F 93% 29.65 in 2.5 mi WNW 12.7 mph 20.7 mph N/A Snow Light Snow
8:35 PM 33.8 °F 24.3 °F 32.0 °F 93% 29.66 in 2.5 mi West 13.8 mph 24.2 mph N/A Snow Light Snow
8:55 PM 33.8 °F 25.3 °F 32.0 °F 93% 29.67 in 2.5 mi WNW 11.5 mph 24.2 mph N/A Snow Light Snow
9:15 PM 33.8 °F 26.4 °F 32.0 °F 93% 29.69 in 2.5 mi WNW 9.2 mph 21.9 mph N/A Snow Light Snow
9:35 PM 33.8 °F 25.8 °F 32.0 °F 93% 29.69 in 2.5 mi WNW 10.4 mph 21.9 mph N/A Snow Light Snow
9:55 PM 33.8 °F 25.8 °F 32.0 °F 93% 29.70 in 2.5 mi WNW 10.4 mph 19.6 mph N/A Snow Light Snow
10:15 PM 33.8 °F 25.8 °F 32.0 °F 93% 29.72 in 1.8 mi WNW 10.4 mph 20.7 mph N/A Snow Light Snow
10:35 PM 33.8 °F 27.0 °F 32.0 °F 93% 29.73 in 1.2 mi WNW 8.1 mph 19.6 mph N/A Snow Snow
10:55 PM 33.8 °F 26.4 °F 32.0 °F 93% 29.74 in 1.0 mi WNW 9.2 mph 19.6 mph N/A Snow Snow
11:15 PM 33.8 °F 27.0 °F 32.0 °F 93% 29.74 in 1.5 mi WNW 8.1 mph - N/A Snow Light Snow
11:35 PM 33.8 °F 25.3 °F 32.0 °F 93% 29.75 in 3.0 mi WNW 11.5 mph 20.7 mph N/A Snow Light Snow
11:55 PM 33.8 °F 25.3 °F 32.0 °F 93% 29.76 in 2.0 mi WNW 11.5 mph 19.6 mph N/A Snow Light Snow